Fairfield, IL

8:36 PM CST on December 08, 2019 (GMT -0600)
Fairfield Municipal

Weather History for KFWC - October, 2019

Change the Weather History Date:

Friday, October 11, 2019

  Actual Average (KEVV) Record (KEVV)
Temperature  
Mean Temperature 54 °F -  
Max Temperature 71 °F 71 °F 93 °F (1963)
Min Temperature 38 °F 46 °F 26 °F (1964)
Degree Days  
Heating Degree Days 10    
Growing Degree Days 4 (Base 50)    
Moisture  
Dew Point 54 °F    
Average Humidity 95    
Maximum Humidity 100    
Minimum Humidity 81    
Precipitation  
Precipitation 1.09 in - - ()
Sea Level Pressure  
Sea Level Pressure 30.01 in    
Wind  
Wind Speed 2 mph ()    
Max Wind Speed 8 mph    
Max Gust Speed -    
Visibility 7.8 miles    
Events Rain , Thunderstorm    
Averages and records for this station are not official NWS values.
T = Trace of Precipitation, MM = Missing Value Source: Averaged Metar Reports

Daily Weather History Graph

Daily Weather History Graph

Search for Another Location

Airport or City:

Astronomy

Oct. 11, 2019 Rise Set
Actual Time 6:58 AM CDT 6:21 PM CDT
Civil Twilight 6:31 AM CDT 6:48 PM CDT
Nautical Twilight 6:01 AM CDT 7:18 PM CDT
Astronomical Twilight 5:30 AM CDT 7:49 PM CDT
Moon 5:48 PM CDT (10/11) 4:41 AM CDT (10/11)
Length of Visible Light 12h 16m
Length of Day
11h 23m
Waxing Gibbous, 96% of the Moon is Illuminated
Oct 11
Waxing Gibbous
Oct 13
Full
Oct 21
Last Quarter
Oct 27
New
Nov 4
First Quarter

Hourly Weather History & Observations

Time (CDT) Temp. Windchill Dew Point Humidity Pressure Visibility Wind Dir Wind Speed Gust Speed Precip Events Conditions
12:15 AM 71.8 °F - 65.7 °F 81% 29.94 in 10.0 mi SSE 3.5 mph - N/A   Mostly Cloudy
12:35 AM 71.6 °F - 65.7 °F 81% 29.93 in 10.0 mi SSE 3.5 mph - N/A   Overcast
12:55 AM 71.2 °F - 66.0 °F 84% 29.93 in 10.0 mi Calm Calm - N/A   Drizzle
1:15 AM 70.9 °F - 66.0 °F 85% 29.93 in 10.0 mi Calm Calm - N/A   Overcast
1:35 AM 70.7 °F - 66.0 °F 85% 29.92 in 10.0 mi Calm Calm - N/A   Light Drizzle
1:55 AM 70.9 °F - 65.8 °F 84% 29.92 in 10.0 mi SSE 3.5 mph - N/A   Overcast
2:15 AM 70.2 °F - 66.2 °F 87% 29.91 in 10.0 mi SSE 3.5 mph - N/A Rain Light Rain
2:35 AM 69.8 °F - 66.4 °F 89% 29.90 in 10.0 mi SSE 3.5 mph - N/A Rain Light Rain
2:55 AM 69.8 °F - 66.4 °F 89% 29.89 in 10.0 mi SSE 3.5 mph - N/A Rain , Thunderstorm Light Thunderstorms and Rain
3:15 AM 69.8 °F - 66.2 °F 88% 29.90 in 10.0 mi SSW 3.5 mph - N/A   Overcast
3:35 AM 68.5 °F - 68.4 °F 99% 29.92 in 3.0 mi Calm Calm - 0.09 in   Overcast
3:55 AM 68.0 °F - 68.0 °F 100% 29.93 in 5.0 mi Calm Calm - 0.14 in Rain , Thunderstorm Thunderstorms and Rain
4:15 AM 67.6 °F - 67.6 °F 100% 29.92 in 4.0 mi Calm Calm - 0.05 in Rain , Thunderstorm Heavy Thunderstorms and Rain
4:35 AM 67.5 °F - 67.5 °F 100% 29.92 in 4.0 mi Calm Calm - 0.10 in Rain , Thunderstorm Rain
4:55 AM 67.3 °F - 67.3 °F 100% 29.92 in 2.5 mi Calm Calm - 0.18 in   Overcast
5:15 AM 67.1 °F - 67.1 °F 100% 29.92 in 4.0 mi Calm Calm - 0.05 in Rain , Thunderstorm Heavy Thunderstorms and Rain
5:35 AM 66.6 °F - 66.6 °F 100% 29.92 in 7.0 mi Calm Calm - 0.09 in Rain Heavy Rain
5:55 AM 66.6 °F - 66.6 °F 100% 29.92 in 7.0 mi Calm Calm - 0.09 in Thunderstorm Overcast
6:15 AM 66.2 °F - 66.2 °F 100% 29.91 in 7.0 mi Calm Calm - N/A Rain , Thunderstorm Light Thunderstorms and Rain
6:35 AM 66.2 °F - 66.2 °F 100% 29.92 in 7.0 mi Calm Calm - 0.01 in Rain , Thunderstorm Light Thunderstorms and Rain
6:55 AM 66.2 °F - 66.2 °F 100% 29.94 in 5.0 mi Calm Calm - 0.05 in Rain , Thunderstorm Rain
7:15 AM 66.2 °F - 66.2 °F 100% 29.95 in 5.0 mi Calm Calm - 0.06 in Rain Heavy Rain
7:35 AM 66.0 °F - 66.0 °F 100% 29.93 in 3.0 mi Calm Calm - 0.17 in Rain Heavy Rain
7:55 AM 66.0 °F - 66.0 °F 100% 29.93 in 3.0 mi Calm Calm - 0.22 in Rain Rain
8:15 AM 65.8 °F - 65.8 °F 100% 29.93 in 10.0 mi Calm Calm - 0.01 in Rain Light Rain
8:35 AM 65.8 °F - 65.8 °F 100% 29.92 in 10.0 mi Calm Calm - 0.01 in Rain Light Rain
8:55 AM 66.2 °F - 66.2 °F 100% 29.93 in 10.0 mi Calm Calm - 0.01 in   Overcast
9:15 AM 66.6 °F - 66.6 °F 100% 29.94 in 10.0 mi Calm Calm - 0.01 in Rain Light Rain
9:35 AM 66.7 °F - 66.7 °F 100% 29.94 in 7.0 mi South 3.5 mph - 0.01 in Rain Rain
9:55 AM 66.7 °F - 66.7 °F 100% 29.94 in 7.0 mi South 3.5 mph - 0.02 in Rain Light Rain
10:15 AM 66.6 °F - 66.6 °F 100% 29.94 in 1.5 mi Calm Calm - 0.10 in Rain Heavy Rain
10:35 AM 66.7 °F - 66.7 °F 100% 29.94 in 3.0 mi South 3.5 mph - 0.16 in Rain Rain
10:55 AM 63.1 °F - 63.1 °F 100% 29.95 in 3.0 mi West 6.9 mph - 0.25 in Rain Heavy Rain
11:15 AM 55.9 °F - 55.9 °F 100% 29.97 in 7.0 mi West 8.1 mph - 0.03 in Rain Light Rain
11:35 AM 54.1 °F - 54.1 °F 100% 29.96 in 7.0 mi West 5.8 mph - 0.04 in Rain Rain
11:55 AM 53.1 °F - 53.1 °F 100% 29.96 in 4.0 mi WNW 5.8 mph - 0.08 in Rain Rain
12:15 PM 52.7 °F - 52.7 °F 100% 29.99 in 5.0 mi WNW 5.8 mph - 0.01 in Rain Heavy Rain
12:35 PM 52.9 °F - 52.9 °F 100% 29.99 in 7.0 mi WNW 4.6 mph - 0.03 in Rain Light Rain
12:55 PM 51.1 °F - 51.1 °F 100% 29.99 in 2.5 mi WNW 4.6 mph - 0.03 in   Heavy Drizzle
1:15 PM 50.2 °F - 50.2 °F 100% 29.99 in 3.0 mi West 3.5 mph - 0.01 in Rain Rain
1:35 PM 49.3 °F - 49.3 °F 100% 30.00 in 4.0 mi WNW 4.6 mph - 0.01 in   Overcast
1:55 PM 49.1 °F - 49.1 °F 100% 30.00 in 10.0 mi WNW 3.5 mph - 0.01 in   Overcast
2:15 PM 48.6 °F - 48.6 °F 100% 30.00 in 10.0 mi WNW 6.9 mph - N/A   Overcast
2:35 PM 47.8 °F - 47.8 °F 100% 30.02 in 10.0 mi WNW 5.8 mph - N/A   Overcast
2:55 PM 48.2 °F - 46.8 °F 95% 30.04 in 10.0 mi WNW 3.5 mph - N/A   Overcast
3:15 PM 47.5 °F - 47.5 °F 100% 30.04 in 2.0 mi WNW 5.8 mph - N/A Rain Heavy Rain
3:35 PM 46.4 °F 45.2 °F 46.4 °F 100% 30.05 in 2.5 mi WNW 3.5 mph - 0.01 in   Drizzle
3:55 PM 46.0 °F 43.9 °F 45.7 °F 99% 30.06 in 10.0 mi WNW 4.6 mph - 0.01 in   Overcast
4:15 PM 45.9 °F 43.6 °F 45.0 °F 97% 30.06 in 10.0 mi WNW 4.6 mph - N/A Rain Light Rain
4:35 PM 44.8 °F 43.3 °F 43.3 °F 95% 30.09 in 10.0 mi WNW 3.5 mph - N/A   Overcast
4:55 PM 44.6 °F - 43.0 °F 94% 30.09 in 10.0 mi Calm Calm - N/A   Light Drizzle
5:15 PM 44.6 °F 42.2 °F 42.4 °F 92% 30.10 in 10.0 mi NW 4.6 mph - N/A   Overcast
5:35 PM 44.6 °F - 43.2 °F 95% 30.11 in 10.0 mi Calm Calm - N/A   Overcast
5:55 PM 45.0 °F 43.5 °F 42.6 °F 91% 30.11 in 10.0 mi NW 3.5 mph - N/A   Overcast
6:15 PM 45.0 °F 43.5 °F 41.9 °F 89% 30.12 in 10.0 mi NW 3.5 mph - N/A   Overcast
6:35 PM 45.0 °F - 42.1 °F 90% 30.12 in 10.0 mi Calm Calm - N/A   Overcast
6:55 PM 45.0 °F - 42.6 °F 91% 30.13 in 10.0 mi Calm Calm - N/A   Overcast
7:15 PM 45.1 °F - 42.8 °F 91% 30.14 in 10.0 mi Calm Calm - N/A   Overcast
7:35 PM 45.1 °F - 41.5 °F 87% 30.14 in 10.0 mi Calm Calm - N/A   Mostly Cloudy
7:55 PM 44.6 °F - 39.7 °F 83% 30.15 in 10.0 mi Calm Calm - N/A   Scattered Clouds
8:15 PM 43.9 °F - 39.2 °F 84% 30.15 in 10.0 mi Calm Calm - N/A   Clear
8:35 PM 43.0 °F - 39.2 °F 86% 30.16 in 10.0 mi Calm Calm - N/A   Clear
8:55 PM 42.8 °F - 38.7 °F 85% 30.16 in 10.0 mi Calm Calm - N/A   Clear
9:15 PM 42.6 °F - 38.1 °F 84% 30.17 in 10.0 mi Calm Calm - N/A   Clear
9:35 PM 41.9 °F - 38.3 °F 87% 30.17 in 10.0 mi Calm Calm - N/A   Clear
9:55 PM 41.4 °F - 38.3 °F 89% 30.18 in 10.0 mi Calm Calm - N/A   Clear
10:15 PM 41.0 °F - 38.5 °F 91% 30.18 in 10.0 mi Calm Calm - N/A   Clear
10:35 PM 39.9 °F - 39.2 °F 97% 30.18 in 10.0 mi Calm Calm - N/A   Clear
10:55 PM 38.5 °F - 38.5 °F 100% 30.18 in 10.0 mi Calm Calm - N/A   Clear
11:15 PM 39.0 °F - 39.0 °F 100% 30.19 in 10.0 mi Calm Calm - N/A   Clear
11:35 PM 38.3 °F - 38.3 °F 100% 30.19 in 10.0 mi Calm Calm - N/A   Clear
11:55 PM 38.3 °F - 38.3 °F 100% 30.19 in 10.0 mi Calm Calm - N/A   Clear